User: anonymous   Login
Location: Arrodets-la-Barthe
(43.0306°N, 0.2829°E)
Time: 23:53:20
(UTC+00:00)
Language:

Cosmos 2251 Rocket - Orbit

View from above orbital plane
View from above orbital plane
View from above satellite
View from above satellite

Ground track
Ground track

The orbit data is extracted from the following two-line orbital elements,

1 22676U 93036B   22020.35574552  .00000040  00000-0  23503-4 0  9997
2 22676  74.0437 352.3772 0019536 325.1644  34.8227 14.34070114495580
Epoch (UTC): 20 January 2022 08:32:16
Eccentricity: 0.0019536
inclination: 74.0437°
perigee height: 764 km
apogee height: 792 km
right ascension of ascending node: 352.3772°
argument of perigee: 325.1644°
revolutions per day: 14.34070114
mean anomaly at epoch: 34.8227°
orbit number at epoch: 49558

The dashed part of the orbit path shows where the satellite is in the earth's shadow,  

DLR